Regional Weather Roundup
Issued by NWS Cleveland, OH

Home | Current Version | Previous Version | Graphics & Text | Print | Product List | Glossary On
Versions: 1 2 3 4 5 6 7 8 9 10 11 12 13 14 15 16 17 18 19 20 21 22 23 24 25 26 27 28 29 30 31 32 33 34 35 36 37 38 39 40 41 42 43 44 45 46 47 48 49 50
000
ASUS41 KCLE 250812
RWRCLE
OHIO REGIONAL WEATHER ROUNDUP
NATIONAL WEATHER SERVICE WILMINGTON, OH
400 AM EDT MON SEP 25 2017

NOTE: "FAIR" INDICATES FEW OR NO CLOUDS BELOW 12,000 FEET WITH NO
SIGNIFICANT WEATHER AND/OR OBSTRUCTIONS TO VISIBILITY.

OHZ001>008-015>018-024>027-034-035-043-044-250900-
   NORTHWEST OHIO

CITY           SKY/WX    TMP DP  RH WIND       PRES   REMARKS
DEFIANCE       FAIR      63  60  90 CALM      30.05F FOG
FINDLAY        FAIR      67  62  84 CALM      30.04F
TOLEDO EXPRESS FAIR      68  68 100 CALM      30.05S
TOLEDO EXEC    FAIR      67  65  93 CALM      30.05F FOG
LIMA           FAIR      64  60  87 CALM      30.06S
$$

OHZ009>014-019>023-028>033-038-089-250900-
   NORTHEAST OHIO

CITY           SKY/WX    TMP DP  RH WIND       PRES   REMARKS
CLE-HOPKINS    MOCLDY    72  65  78 CALM      30.07F
CLE-LAKEFRONT  FAIR      74  65  73 SE6       30.04F
CUY CO. ARPT   NOT AVBL
LORAIN-ELYRIA  FAIR      65  59  81 CALM      30.06F
ASHTABULA      FAIR      69  66  90 SE7       30.09F
AKRON-CANTON   FAIR      70  64  81 E6        30.08F
WOOSTER        FAIR      61  60  97 CALM      30.07F
MANSFIELD      FAIR      66  62  87 CALM      30.08S
YOUNGSTOWN     FAIR      68  65  90 E7        30.09S
$$

OHZ042-051>053-060>062-070>072-077>081-250900-
  SOUTHWEST OHIO

CITY           SKY/WX    TMP DP  RH WIND       PRES   REMARKS
CINC-COVINGTON FAIR      64  59  83 CALM      30.03F
CINC-LUNKEN    FAIR      61  61 100 CALM      30.04S
HAMILTON       FAIR      60  59  96 W5        30.05S
DAYTON         FAIR      64  58  80 CALM      30.06S
WRIGHT-PAT AFB FAIR      63  62  97 CALM      30.04F
DAYTON GENERAL FAIR      66  58  75 NE3       30.04S
WILMINGTON     FAIR      62  61  96 CALM      30.04F
$$

OHZ036-037-039>041-045>050-054>059-063>069-073>076-082>088-250900-
  CENTRAL AND SOUTHEAST OHIO

CITY           SKY/WX    TMP DP  RH WIND       PRES   REMARKS
COLUMBUS       FAIR      68  63  84 N3        30.04S
OSU AIRPORT    FAIR      66  64  93 W3        30.04F
BOLTON FIELD   FAIR      64  61  90 CALM      30.05F
RICKENBACK AFB FAIR      67  64  89 N3        30.03S
NEWARK         FAIR      63  61  93 CALM      30.05S
MARION         FAIR      63  58  83 CALM      30.06F
LANCASTER      FAIR      59  59 100 CALM      30.05S FOG
ZANESVILLE     FAIR      64  62  93 CALM      30.05S
NEW PHILLY     FAIR      64  64 100 CALM      30.07F FOG
$$



USA.gov is the U.S. government's official web portal to all federal, state and local government web resources and services.